| time (UTC) | temp F | wind direction | speed knots | gust knots | rain 1hr in | rain 24hr in | rain mn in | humidity % | barometer mb |
| 20260506162816 | 32 | 202 | 0.0 | 0.0 | 0.01 | 0.30 | 0.01 | 91 | 1019.9 |
| 20260506161816 | 33 | 182 | 0.0 | 0.0 | 0.01 | 0.32 | 0.01 | 92 | 1019.5 |
| 20260506160815 | 33 | 221 | 0.0 | 0.0 | 0.01 | 0.33 | 0.01 | 92 | 1019.3 |
| 20260506160258 | 33 | 210 | 0.0 | 0.0 | 0.00 | 0.33 | 0.01 | 92 | 1019.3 |
| 20260506154815 | 32 | 203 | 0.0 | 0.0 | 0.00 | 0.33 | 0.00 | 92 | 1019.3 |
| 20260506153815 | 32 | 171 | 0.0 | 0.0 | 0.00 | 0.34 | 0.00 | 92 | 1019.3 |
| 20260506152815 | 32 | 211 | 0.0 | 0.0 | 0.00 | 0.35 | 0.00 | 92 | 1019.2 |
| 20260506152258 | 32 | 179 | 0.0 | 0.0 | 0.00 | 0.36 | 0.00 | 92 | 1019.1 |
| 20260506150816 | 32 | 194 | 0.0 | 0.0 | 0.00 | 0.37 | 0.00 | 92 | 1019.1 |
| 20260506145812 | 32 | 173 | 0.0 | 0.0 | 0.00 | 0.37 | 0.00 | 92 | 1019.0 |
| 20260506145300 | 32 | 193 | 0.0 | 0.0 | 0.00 | 0.38 | 0.00 | 92 | 1018.8 |
| 20260506143812 | 32 | 174 | 0.0 | 0.0 | 0.00 | 0.40 | 0.00 | 92 | 1018.8 |
| 20260506142814 | 32 | 205 | 0.0 | 0.0 | 0.00 | 0.40 | 0.00 | 92 | 1018.7 |
| 20260506142243 | 32 | 192 | 0.0 | 0.0 | 0.00 | 0.41 | 0.00 | 92 | 1018.6 |
| 20260506140812 | 32 | 175 | 0.0 | 0.0 | 0.00 | 0.42 | 0.00 | 92 | 1018.6 |
| 20260506135810 | 32 | 198 | 0.0 | 0.0 | 0.00 | 0.42 | 0.00 | 92 | 1018.5 |
| 20260506134808 | 32 | 207 | 0.0 | 0.0 | 0.00 | 0.43 | 0.00 | 92 | 1018.5 |
| 20260506133809 | 32 | 188 | 0.0 | 0.0 | 0.00 | 0.43 | 0.00 | 92 | 1018.4 |
| 20260506132810 | 32 | 191 | 0.0 | 0.0 | 0.00 | 0.43 | 0.00 | 92 | 1018.3 |
| 20260506131804 | 32 | 201 | 0.0 | 0.0 | 0.00 | 0.43 | 0.00 | 92 | 1018.0 |
| 20260506131248 | 32 | 194 | 0.0 | 0.0 | 0.00 | 0.43 | 0.00 | 92 | 1017.8 |
| 20260506125805 | 32 | 209 | 0.0 | 0.0 | 0.00 | 0.43 | 0.00 | 92 | 1017.6 |
| 20260506124805 | 32 | 192 | 0.0 | 0.0 | 0.00 | 0.44 | 0.00 | 92 | 1017.4 |
| 20260506123805 | 32 | 203 | 0.0 | 0.0 | 0.00 | 0.44 | 0.00 | 92 | 1017.3 |
| 20260506122805 | 32 | 191 | 0.0 | 0.0 | 0.00 | 0.44 | 0.00 | 92 | 1017.2 |
| 20260506121805 | 32 | 166 | 0.0 | 0.0 | 0.00 | 0.44 | 0.00 | 92 | 1017.1 |
| 20260506120806 | 32 | 166 | 0.0 | 0.0 | 0.00 | 0.44 | 0.00 | 92 | 1017.2 |
| 20260506115803 | 32 | 167 | 0.0 | 0.0 | 0.00 | 0.44 | 0.00 | 92 | 1016.7 |
| 20260506114802 | 32 | 166 | 0.0 | 0.0 | 0.00 | 0.44 | 0.00 | 92 | 1016.9 |
| 20260506114247 | 32 | 166 | 0.0 | 0.0 | 0.00 | 0.44 | 0.00 | 92 | 1016.9 |
| 20260506112800 | 32 | 166 | 0.0 | 0.0 | 0.00 | 0.45 | 0.00 | 92 | 1016.7 |
| 20260506111800 | 32 | 166 | 0.0 | 0.0 | 0.00 | 0.45 | 0.00 | 92 | 1016.6 |
| 20260506111256 | 32 | 166 | 0.0 | 0.0 | 0.00 | 0.46 | 0.00 | 92 | 1016.5 |
| 20260506105800 | 32 | 166 | 0.0 | 0.0 | 0.00 | 0.47 | 0.00 | 92 | 1016.4 |
| 20260506104803 | 32 | 166 | 0.0 | 0.0 | 0.00 | 0.48 | 0.00 | 92 | 1016.4 |
| 20260506103755 | 32 | 166 | 0.0 | 0.0 | 0.00 | 0.50 | 0.00 | 92 | 1016.3 |
| 20260506102754 | 32 | 166 | 0.0 | 0.0 | 0.00 | 0.53 | 0.00 | 92 | 1016.4 |
| 20260506101755 | 32 | 166 | 0.0 | 0.0 | 0.00 | 0.55 | 0.00 | 92 | 1016.4 |
| 20260506100755 | 32 | 166 | 0.0 | 0.0 | 0.00 | 0.56 | 0.00 | 92 | 1016.5 |
| 20260506095755 | 32 | 166 | 0.0 | 0.0 | 0.00 | 0.57 | 0.00 | 92 | 1016.5 |
| 20260506094754 | 32 | 166 | 0.0 | 0.0 | 0.00 | 0.60 | 0.00 | 92 | 1016.6 |
| 20260506093756 | 32 | 171 | 0.0 | 0.0 | 0.00 | 0.63 | 0.00 | 92 | 1016.6 |
| 20260506092755 | 32 | 193 | 0.0 | 0.0 | 0.00 | 0.66 | 0.00 | 92 | 1016.4 |
| 20260506092231 | 32 | 193 | 0.0 | 0.0 | 0.00 | 0.67 | 0.00 | 92 | 1016.4 |
| 20260506090749 | 32 | 197 | 0.0 | 0.0 | 0.00 | 0.67 | 0.00 | 92 | 1016.3 |
| 20260506085749 | 32 | 192 | 0.0 | 0.0 | 0.00 | 0.67 | 0.00 | 92 | 1016.5 |
| 20260506084750 | 32 | 197 | 0.0 | 0.0 | 0.00 | 0.67 | 0.00 | 92 | 1016.5 |
| 20260506083748 | 32 | 186 | 0.0 | 0.0 | 0.00 | 0.67 | 0.00 | 92 | 1016.4 |
| 20260506082748 | 32 | 195 | 0.0 | 0.0 | 0.00 | 0.67 | 0.00 | 92 | 1016.5 |
| 20260506081748 | 32 | 217 | 0.0 | 0.0 | 0.00 | 0.67 | 0.00 | 92 | 1016.4 |
| 20260506080747 | 32 | 191 | 0.0 | 0.0 | 0.00 | 0.67 | 0.00 | 92 | 1016.4 |
| 20260506072742 | 33 | 151 | 0.0 | 0.0 | 0.00 | 0.68 | 0.00 | 92 | 1016.5 |
| 20260506072221 | 33 | 193 | 0.0 | 0.0 | 0.00 | 0.68 | 0.00 | 92 | 1016.3 |
| 20260506070742 | 33 | 171 | 0.0 | 0.0 | 0.00 | 0.68 | 0.00 | 92 | 1016.5 |
| 20260506062218 | 33 | 215 | 0.0 | 0.0 | 0.00 | 0.68 | 0.00 | 92 | 1015.9 |
| 20260506060737 | 33 | 179 | 0.0 | 0.0 | 0.00 | 0.68 | 0.00 | 92 | 1015.9 |
| 20260506051215 | 33 | 147 | 0.0 | 0.0 | 0.00 | 0.68 | 0.68 | 92 | 1015.5 |
| 20260506044735 | 33 | 147 | 0.0 | 0.0 | 0.00 | 0.68 | 0.68 | 92 | 1015.3 |
| 20260506043735 | 33 | 147 | 0.0 | 0.0 | 0.00 | 0.68 | 0.68 | 92 | 1015.3 |
| 20260506042733 | 33 | 147 | 0.0 | 0.0 | 0.00 | 0.68 | 0.68 | 92 | 1015.5 |
| 20260506041730 | 33 | 147 | 0.0 | 0.0 | 0.00 | 0.68 | 0.68 | 92 | 1015.5 |
| 20260506040731 | 33 | 146 | 0.0 | 0.0 | 0.00 | 0.68 | 0.68 | 92 | 1015.3 |
| 20260506035728 | 33 | 173 | 0.0 | 0.0 | 0.00 | 0.68 | 0.68 | 92 | 1015.0 |
| 20260506034728 | 33 | 173 | 0.0 | 0.0 | 0.00 | 0.68 | 0.68 | 92 | 1015.2 |
| 20260506033729 | 33 | 173 | 0.0 | 0.0 | 0.00 | 0.68 | 0.68 | 92 | 1015.2 |
| 20260506032726 | 33 | 175 | 0.0 | 0.0 | 0.00 | 0.68 | 0.68 | 92 | 1015.2 |
| 20260506031726 | 33 | 155 | 0.0 | 0.9 | 0.00 | 0.68 | 0.68 | 92 | 1015.0 |
| 20260506030725 | 33 | 174 | 0.0 | 0.0 | 0.00 | 0.69 | 0.68 | 92 | 1014.9 |
| 20260506025725 | 33 | 188 | 0.0 | 1.7 | 0.00 | 0.73 | 0.68 | 92 | 1014.6 |
| 20260506024724 | 33 | 181 | 0.0 | 0.9 | 0.00 | 0.76 | 0.68 | 92 | 1014.4 |
| 20260506023724 | 33 | 184 | 0.0 | 0.0 | 0.00 | 0.81 | 0.68 | 92 | 1014.2 |
| 20260506023205 | 33 | 176 | 0.0 | 0.9 | 0.00 | 0.83 | 0.68 | 92 | 1014.1 |
| 20260506021724 | 33 | 219 | 0.0 | 1.7 | 0.00 | 0.84 | 0.68 | 92 | 1013.8 |
| 20260506020723 | 33 | 191 | 0.0 | 1.7 | 0.00 | 0.84 | 0.68 | 92 | 1013.8 |
| 20260506015725 | 33 | 172 | 0.0 | 0.9 | 0.00 | 0.84 | 0.68 | 92 | 1013.5 |
| 20260506014720 | 33 | 191 | 0.0 | 1.7 | 0.00 | 0.84 | 0.68 | 92 | 1013.7 |
| 20260506013720 | 33 | 172 | 0.9 | 1.7 | 0.00 | 0.84 | 0.68 | 92 | 1013.4 |
| 20260506012720 | 33 | 179 | 0.9 | 1.7 | 0.00 | 0.84 | 0.68 | 92 | 1013.2 |
| 20260506012154 | 33 | 165 | 0.9 | 2.6 | 0.00 | 0.84 | 0.68 | 92 | 1013.5 |
| 20260506010720 | 33 | 176 | 0.9 | 2.6 | 0.00 | 0.84 | 0.68 | 92 | 1013.1 |
| 20260506005719 | 33 | 193 | 0.9 | 3.5 | 0.00 | 0.84 | 0.68 | 92 | 1013.1 |
| 20260506004719 | 33 | 183 | 0.9 | 4.3 | 0.00 | 0.84 | 0.68 | 92 | 1013.0 |
| 20260506003718 | 33 | 187 | 0.0 | 2.6 | 0.00 | 0.84 | 0.68 | 92 | 1013.0 |
| 20260506003158 | 33 | 173 | 0.0 | 0.0 | 0.00 | 0.84 | 0.68 | 91 | 1013.0 |
| 20260506001716 | 33 | 205 | 0.0 | 0.0 | 0.00 | 0.84 | 0.68 | 91 | 1013.0 |
| 20260506001157 | 33 | 149 | 0.0 | 0.0 | 0.00 | 0.84 | 0.68 | 91 | 1013.0 |
| 20260505235710 | 33 | 181 | 0.0 | 0.0 | 0.00 | 0.84 | 0.68 | 91 | 1013.0 |
| 20260505235642 | 33 | 187 | 0.0 | 0.0 | 0.00 | 0.84 | 0.68 | 91 | 1012.9 |
| 20260505233709 | 33 | 190 | 0.0 | 2.6 | 0.00 | 0.84 | 0.68 | 91 | 1012.9 |
| 20260505232709 | 33 | 193 | 1.7 | 4.3 | 0.00 | 0.84 | 0.68 | 91 | 1012.4 |
| 20260505231710 | 33 | 149 | 1.7 | 4.3 | 0.00 | 0.84 | 0.68 | 91 | 1012.5 |
| 20260505230710 | 33 | 171 | 1.7 | 4.3 | 0.00 | 0.84 | 0.68 | 91 | 1012.8 |
| 20260505225709 | 33 | 191 | 0.9 | 4.3 | 0.00 | 0.84 | 0.68 | 91 | 1012.8 |
| 20260505224711 | 33 | 179 | 1.7 | 7.0 | 0.01 | 0.84 | 0.68 | 91 | 1012.9 |
| 20260505223710 | 33 | 138 | 2.6 | 8.7 | 0.01 | 0.84 | 0.68 | 91 | 1012.9 |
| 20260505222707 | 33 | 172 | 3.5 | 7.8 | 0.01 | 0.84 | 0.68 | 91 | 1012.5 |
| 20260505221707 | 34 | 209 | 2.6 | 7.0 | 0.01 | 0.84 | 0.68 | 91 | 1012.2 |
| 20260505220707 | 34 | 203 | 3.5 | 8.7 | 0.01 | 0.84 | 0.68 | 91 | 1012.5 |
| 20260505215707 | 34 | 172 | 4.3 | 9.6 | 0.01 | 0.84 | 0.68 | 91 | 1012.2 |
| 20260505214707 | 35 | 198 | 3.5 | 9.6 | 0.00 | 0.83 | 0.67 | 91 | 1012.0 |
| 20260505214154 | 35 | 192 | 5.2 | 11.3 | 0.01 | 0.83 | 0.67 | 91 | 1011.8 |
| 20260505212707 | 35 | 209 | 4.3 | 8.7 | 0.01 | 0.83 | 0.67 | 91 | 1011.8 |
| 20260505211707 | 35 | 188 | 4.3 | 11.3 | 0.03 | 0.83 | 0.67 | 91 | 1012.1 |
| 20260505210707 | 34 | 214 | 5.2 | 9.6 | 0.05 | 0.83 | 0.67 | 91 | 1012.3 |
| 20260505205709 | 34 | 200 | 3.5 | 8.7 | 0.06 | 0.83 | 0.67 | 91 | 1012.2 |
| 20260505204707 | 35 | 230 | 4.3 | 11.3 | 0.07 | 0.83 | 0.67 | 90 | 1012.3 |
| 20260505203707 | 37 | 209 | 2.6 | 7.8 | 0.06 | 0.82 | 0.66 | 91 | 1012.1 |
| 20260505202707 | 37 | 194 | 2.6 | 6.1 | 0.07 | 0.82 | 0.66 | 91 | 1012.5 |
| 20260505201707 | 38 | 181 | 0.9 | 4.3 | 0.05 | 0.80 | 0.64 | 91 | 1012.7 |
| 20260505200706 | 38 | 263 | 0.9 | 3.5 | 0.04 | 0.78 | 0.62 | 91 | 1012.7 |
| 20260505195709 | 38 | 178 | 0.9 | 3.5 | 0.05 | 0.77 | 0.61 | 91 | 1012.9 |
| 20260505195151 | 38 | 174 | 0.9 | 4.3 | 0.04 | 0.76 | 0.60 | 91 | 1012.5 |
| 20260505193702 | 38 | 210 | 0.9 | 4.3 | 0.04 | 0.76 | 0.60 | 91 | 1012.7 |
| 20260505193139 | 38 | 200 | 0.9 | 4.3 | 0.03 | 0.75 | 0.59 | 90 | 1013.0 |
| 20260505191701 | 38 | 146 | 0.0 | 1.7 | 0.03 | 0.75 | 0.59 | 90 | 1012.8 |
| 20260505190702 | 38 | 90 | 0.0 | 0.9 | 0.03 | 0.74 | 0.58 | 90 | 1012.7 |
| 20260505185702 | 38 | 149 | 0.0 | 0.9 | 0.03 | 0.72 | 0.56 | 91 | 1012.7 |
| 20260505184702 | 38 | 136 | 0.0 | 1.7 | 0.05 | 0.72 | 0.56 | 91 | 1012.9 |
| 20260505183702 | 38 | 299 | 0.9 | 2.6 | 0.07 | 0.72 | 0.56 | 91 | 1012.8 |
| 20260505183149 | 37 | 131 | 0.0 | 1.7 | 0.09 | 0.72 | 0.56 | 91 | 1013.0 |
| 20260505181702 | 37 | 169 | 0.0 | 1.7 | 0.10 | 0.72 | 0.56 | 91 | 1013.4 |
| 20260505180658 | 37 | 158 | 0.0 | 1.7 | 0.10 | 0.71 | 0.55 | 91 | 1013.6 |
| 20260505180139 | 37 | 160 | 0.0 | 0.9 | 0.10 | 0.69 | 0.54 | 91 | 1013.4 |
| 20260505174659 | 37 | 174 | 0.0 | 0.9 | 0.09 | 0.67 | 0.51 | 91 | 1013.5 |
| 20260505173700 | 36 | 186 | 0.0 | 0.9 | 0.09 | 0.65 | 0.50 | 91 | 1013.5 |
| 20260505172658 | 36 | 186 | 0.9 | 2.6 | 0.08 | 0.63 | 0.48 | 91 | 1013.7 |
| 20260505171655 | 36 | 167 | 0.9 | 2.6 | 0.09 | 0.62 | 0.46 | 91 | 1013.8 |
| 20260505170654 | 36 | 173 | 0.9 | 2.6 | 0.09 | 0.61 | 0.45 | 91 | 1014.2 |
| 20260505165654 | 36 | 181 | 0.0 | 1.7 | 0.08 | 0.59 | 0.43 | 91 | 1013.9 |
| 20260505164648 | 36 | 198 | 0.0 | 1.7 | 0.08 | 0.58 | 0.42 | 91 | 1013.9 |
| 20260505163647 | 35 | 163 | 0.9 | 3.5 | 0.07 | 0.56 | 0.40 | 91 | 1013.9 |